Stündliche Wetter Abbadia San Salvatore

Heute, 9 März, Dienstag

Zeit Temperatur Niederschläge Wind Luftdruck Luftfeuchtigkeit
00:00 +3°C° 1.7 mm 1 m/S 669 mmHg 96%
01:00 +2°C° 1.7 mm 2 m/S 668 mmHg 96%
02:00 +2°C° 2.8 mm 2 m/S 668 mmHg 96%
03:00 +2°C° 2.8 mm 2 m/S 668 mmHg 96%
04:00 +1°C° 2.8 mm 3 m/S 667 mmHg 95%
05:00 +1°C° 1.2 mm 3 m/S 667 mmHg 95%
06:00 +1°C° 1.2 mm 3 m/S 667 mmHg 95%
07:00 +1°C° 1.2 mm 3 m/S 667 mmHg 95%
08:00 +1°C° 0.3 mm 3 m/S 667 mmHg 94%
09:00 +1°C° 0.3 mm 3 m/S 668 mmHg 93%
10:00 +2°C° 0.3 mm 3 m/S 668 mmHg 92%
11:00 +2°C° 0.1 mm 3 m/S 668 mmHg 91%
12:00 +2°C° 0.1 mm 3 m/S 668 mmHg 90%
13:00 +1°C° 0.1 mm 4 m/S 668 mmHg 89%
14:00 +1°C° 0 mm 4 m/S 668 mmHg 88%
15:00 +1°C° 0 mm 4 m/S 667 mmHg 88%
16:00 +1°C° 0 mm 4 m/S 667 mmHg 87%
17:00 +1°C° 0 mm 3 m/S 667 mmHg 89%
18:00 +1°C° 0 mm 3 m/S 667 mmHg 90%
19:00 0°C° 0 mm 3 m/S 667 mmHg 91%
20:00 0°C° 0 mm 3 m/S 667 mmHg 91%
21:00 0°C° 0 mm 3 m/S 667 mmHg 91%
22:00 -1°C° 0 mm 2 m/S 667 mmHg 91%
23:00 -1°C° 0 mm 3 m/S 667 mmHg 92%

Morgen, 10 März, Mittwoch

Zeit Temperatur Niederschläge Wind Luftdruck Luftfeuchtigkeit
00:00 -1°C° 0 mm 3 m/S 667 mmHg 93%
01:00 -2°C° 0 mm 3 m/S 667 mmHg 93%
02:00 -2°C° 0 mm 3 m/S 667 mmHg 92%
03:00 -2°C° 0 mm 3 m/S 667 mmHg 90%
04:00 -2°C° 0 mm 3 m/S 667 mmHg 89%
05:00 -4°C° 0 mm 3 m/S 667 mmHg 90%
06:00 -4°C° 0 mm 3 m/S 667 mmHg 90%
07:00 -3°C° 0 mm 2 m/S 667 mmHg 91%
08:00 -2°C° 0 mm 3 m/S 668 mmHg 83%
09:00 -1°C° 0 mm 4 m/S 669 mmHg 76%
10:00 +1°C° 0 mm 5 m/S 670 mmHg 68%
11:00 +1°C° 0 mm 5 m/S 671 mmHg 65%
12:00 +2°C° 0 mm 6 m/S 671 mmHg 63%
13:00 +3°C° 0 mm 6 m/S 672 mmHg 60%
14:00 +3°C° 0 mm 6 m/S 672 mmHg 58%
15:00 +3°C° 0 mm 6 m/S 672 mmHg 57%
16:00 +2°C° 0 mm 6 m/S 672 mmHg 56%
17:00 +1°C° 0 mm 5 m/S 672 mmHg 59%
18:00 -1°C° 0 mm 4 m/S 672 mmHg 62%
19:00 -1°C° 0 mm 3 m/S 672 mmHg 66%
20:00 -2°C° 0 mm 3 m/S 672 mmHg 66%
21:00 -4°C° 0 mm 3 m/S 672 mmHg 67%
22:00 -3°C° 0 mm 2 m/S 673 mmHg 67%
23:00 -3°C° 0 mm 2 m/S 673 mmHg 67%

übermorgen, 11 März, Donnerstag

Zeit Temperatur Niederschläge Wind Luftdruck Luftfeuchtigkeit
00:00 -3°C° 0 mm 2 m/S 673 mmHg 67%
01:00 -4°C° 0 mm 2 m/S 673 mmHg 67%
02:00 -4°C° 0 mm 2 m/S 673 mmHg 67%
03:00 -4°C° 0 mm 2 m/S 673 mmHg 67%
04:00 -2°C° 0 mm 1 m/S 672 mmHg 67%
05:00 -2°C° 0 mm 1 m/S 673 mmHg 66%
06:00 -2°C° 0 mm 1 m/S 673 mmHg 66%
07:00 -2°C° 0 mm 1 m/S 673 mmHg 65%
08:00 +1°C° 0 mm 1 m/S 674 mmHg 60%
09:00 +4°C° 0 mm 1 m/S 675 mmHg 55%
10:00 +5°C° 0 mm 0 m/S 676 mmHg 50%
11:00 +7°C° 0 mm 1 m/S 676 mmHg 50%
12:00 +7°C° 0 mm 2 m/S 677 mmHg 51%
13:00 +8°C° 0 mm 2 m/S 677 mmHg 51%
14:00 +7°C° 0 mm 2 m/S 676 mmHg 54%
15:00 +7°C° 0 mm 3 m/S 676 mmHg 56%
16:00 +7°C° 0 mm 3 m/S 676 mmHg 59%
17:00 +5°C° 0 mm 2 m/S 675 mmHg 64%
18:00 +3°C° 0 mm 2 m/S 675 mmHg 70%
19:00 +2°C° 0 mm 2 m/S 674 mmHg 76%
20:00 +1°C° 0 mm 2 m/S 674 mmHg 75%
21:00 +2°C° 0 mm 1 m/S 674 mmHg 74%
22:00 +2°C° 0 mm 1 m/S 674 mmHg 73%
23:00 +1°C° 0 mm 2 m/S 674 mmHg 79%

12 März, Freitag

Zeit Temperatur Niederschläge Wind Luftdruck Luftfeuchtigkeit
00:00 +2°C° 0 mm 2 m/S 674 mmHg 85%
01:00 +2°C° 0 mm 2 m/S 674 mmHg 92%
02:00 +2°C° 0 mm 2 m/S 674 mmHg 92%
03:00 +2°C° 0 mm 3 m/S 674 mmHg 92%
04:00 +2°C° 0 mm 3 m/S 673 mmHg 92%
05:00 +2°C° 0 mm 3 m/S 673 mmHg 91%
06:00 +2°C° 0 mm 3 m/S 673 mmHg 91%
07:00 +2°C° 0 mm 3 m/S 673 mmHg 90%
08:00 +3°C° 0 mm 4 m/S 673 mmHg 88%
09:00 +4°C° 0 mm 4 m/S 674 mmHg 85%
10:00 +5°C° 0 mm 4 m/S 674 mmHg 82%
11:00 +5°C° 0 mm 4 m/S 674 mmHg 83%
12:00 +5°C° 0 mm 4 m/S 674 mmHg 84%
13:00 +5°C° 0 mm 4 m/S 673 mmHg 85%
14:00 +5°C° 0 mm 4 m/S 673 mmHg 84%
15:00 +5°C° 0 mm 4 m/S 673 mmHg 84%
16:00 +5°C° 0 mm 4 m/S 672 mmHg 84%
17:00 +4°C° 0 mm 4 m/S 672 mmHg 85%
18:00 +4°C° 0 mm 4 m/S 671 mmHg 87%
19:00 +3°C° 0 mm 4 m/S 671 mmHg 89%
20:00 +3°C° 0 mm 4 m/S 671 mmHg 90%
21:00 +3°C° 0 mm 3 m/S 671 mmHg 92%
22:00 +3°C° 0 mm 3 m/S 671 mmHg 93%
23:00 +3°C° 0.2 mm 3 m/S 671 mmHg 94%

13 März, Samstag

Zeit Temperatur Niederschläge Wind Luftdruck Luftfeuchtigkeit
00:00 +3°C° 0.2 mm 3 m/S 671 mmHg 95%
01:00 +3°C° 0.2 mm 3 m/S 671 mmHg 96%
02:00 +4°C° 0.7 mm 2 m/S 671 mmHg 96%
03:00 +4°C° 0.7 mm 2 m/S 670 mmHg 97%
04:00 +5°C° 0.7 mm 1 m/S 670 mmHg 97%
05:00 +5°C° 0.7 mm 1 m/S 670 mmHg 96%
06:00 +5°C° 0.7 mm 1 m/S 670 mmHg 94%
07:00 +4°C° 0.7 mm 1 m/S 670 mmHg 92%
08:00 +5°C° 0.2 mm 1 m/S 671 mmHg 88%
09:00 +6°C° 0.2 mm 1 m/S 672 mmHg 84%
10:00 +7°C° 0.2 mm 1 m/S 672 mmHg 80%
11:00 +8°C° 0.1 mm 1 m/S 673 mmHg 78%
12:00 +8°C° 0.1 mm 1 m/S 673 mmHg 76%
13:00 +9°C° 0.1 mm 1 m/S 673 mmHg 74%
14:00 +9°C° 0.1 mm 1 m/S 673 mmHg 72%
15:00 +9°C° 0.1 mm 1 m/S 672 mmHg 71%
16:00 +10°C° 0.1 mm 1 m/S 672 mmHg 69%
17:00 +8°C° 0.1 mm 1 m/S 672 mmHg 76%
18:00 +6°C° 0.1 mm 1 m/S 671 mmHg 82%
19:00 +5°C° 0.1 mm 1 m/S 671 mmHg 89%
20:00 +5°C° 0 mm 1 m/S 671 mmHg 89%
21:00 +3°C° 0 mm 0 m/S 671 mmHg 90%
22:00 +3°C° 0 mm 0 m/S 671 mmHg 91%
23:00 +3°C° 0 mm 0 m/S 671 mmHg 91%

14 März, Sonntag

Zeit Temperatur Niederschläge Wind Luftdruck Luftfeuchtigkeit
00:00 +2°C° 0 mm 0 m/S 670 mmHg 91%
01:00 +2°C° 0 mm 0 m/S 670 mmHg 91%
02:00 +2°C° 0 mm 0 m/S 670 mmHg 90%
03:00 +1°C° 0 mm 0 m/S 669 mmHg 90%
04:00 +1°C° 0 mm 0 m/S 669 mmHg 89%
05:00 +1°C° 0 mm 0 m/S 669 mmHg 90%
06:00 +2°C° 0 mm 1 m/S 669 mmHg 90%
07:00 +2°C° 0 mm 1 m/S 669 mmHg 90%
08:00 +4°C° 0 mm 1 m/S 669 mmHg 86%
09:00 +4°C° 0 mm 2 m/S 670 mmHg 81%
10:00 +6°C° 0 mm 2 m/S 670 mmHg 77%
11:00 +5°C° 0.1 mm 3 m/S 670 mmHg 75%
12:00 +6°C° 0.1 mm 4 m/S 670 mmHg 74%
13:00 +6°C° 0.1 mm 4 m/S 669 mmHg 73%
14:00 +6°C° 0 mm 5 m/S 669 mmHg 72%
15:00 +6°C° 0 mm 5 m/S 669 mmHg 70%
16:00 +7°C° 0 mm 5 m/S 669 mmHg 68%
17:00 +5°C° 0 mm 4 m/S 669 mmHg 76%
18:00 +4°C° 0 mm 3 m/S 668 mmHg 83%
19:00 +4°C° 0 mm 1 m/S 668 mmHg 90%
20:00 +4°C° 0 mm 1 m/S 668 mmHg 90%
21:00 +3°C° 0 mm 1 m/S 669 mmHg 90%
22:00 +2°C° 0 mm 0 m/S 669 mmHg 90%
23:00 +2°C° 0 mm 0 m/S 669 mmHg 90%
Mehr zeigen

Wir brauchen deine Erlaubnis

Meteoprog und unser Service Anbieter werden persönliche Daten aufbewahren, so wie Cookies, Geräte Bezeichnung oder ähnliche Technologien von deinem Gerät und Prozess, so wie Persönliche Daten Inhalte und Werbungen, genauso wie social Media und den Verkehr zu analysieren.

  • Aufbewahrung und/oder Zugang zu deiner Geräte Informationen.

    Cookies, Geräte Bezeichnung oder andere Informationen, können aufbewahrt oder Zugang zu deinem Gerät erhalten, für den Grund, der oben angegeben wird.

  • Personalisierte Werbung und Inhalte, Messungen, Einblick in das Publikum und Produkt Entwicklung.

    Werbungen und Inhalte können personalisiert werden, basierend auf ein Profil. Mehr Daten können besser personalisierte Werbungen und Inhalte hinzufügen. Werbung und Inhalte können gezeigt und gemessen werden. Einblicke über das Publikum, welche die Werbung gesehen haben und den Inhalt, können abgeleitet werden. So wie Daten können genutzt werden, um es zu verbessern oder die Benutzer Erfahrung zu verbessern das System und die Software.

Wenn du “Ich stimme zu” klickst, erlaubst du uns, die Cookies zu benutzen die Geräte Bezeichnung, den Web oder ähnliche Technologien zu benutzen. Deine Settings, können in deinem Gerät bei deinem Browser geändert werden.

Für den bestimmten Zweck, berechtigten Interessen beruhen darauf, mehr als auf den Inhalt. Du kannst mehr darüber in unseren Privaten und Cookie Politik lesen.